| time (UTC) | temp F | wind direction | speed knots | gust knots | rain 1hr in | rain 24hr in | rain mn in | humidity % | barometer mb |
| 20260510140032 | 78 | 239 | 5.2 | 10.4 | 0.00 | 0.00 | 0.00 | 45 | 1010.4 |
| 20260510135103 | 78 | 329 | 2.6 | 9.6 | 0.00 | 0.00 | 0.00 | 48 | 1010.4 |
| 20260510134036 | 76 | 217 | 3.5 | 7.0 | 0.00 | 0.00 | 0.00 | 51 | 1010.6 |
| 20260510133051 | 76 | 234 | 2.6 | 4.3 | 0.00 | 0.00 | 0.00 | 50 | 1010.8 |
| 20260510132120 | 78 | 279 | 3.5 | 5.2 | 0.00 | 0.00 | 0.00 | 40 | 1010.9 |
| 20260510131103 | 78 | 211 | 4.3 | 8.7 | 0.00 | 0.00 | 0.00 | 36 | 1011.0 |
| 20260510130109 | 78 | 273 | 3.5 | 6.1 | 0.00 | 0.00 | 0.00 | 37 | 1011.1 |
| 20260510125124 | 79 | 250 | 3.5 | 7.0 | 0.00 | 0.00 | 0.00 | 36 | 1011.1 |
| 20260510124053 | 81 | 0.0 | 0.9 | 0.00 | 0.00 | 0.00 | 33 | 1011.2 | |
| 20260510123022 | 80 | 0.0 | 0.0 | 0.00 | 0.00 | 0.00 | 36 | 1011.2 | |
| 20260510122054 | 80 | 0.0 | 0.0 | 0.00 | 0.00 | 0.00 | 36 | 1011.6 | |
| 20260510121122 | 80 | 0.0 | 0.0 | 0.00 | 0.01 | 0.00 | 37 | 1011.8 | |
| 20260510120042 | 79 | 0.0 | 0.0 | 0.00 | 0.04 | 0.00 | 39 | 1011.9 | |
| 20260510115047 | 78 | 0.0 | 0.0 | 0.00 | 0.05 | 0.00 | 40 | 1012.0 | |
| 20260510114103 | 78 | 0.0 | 0.0 | 0.00 | 0.05 | 0.00 | 41 | 1012.1 | |
| 20260510113123 | 78 | 0.0 | 0.0 | 0.00 | 0.06 | 0.00 | 40 | 1012.2 | |
| 20260510112031 | 78 | 0.0 | 0.0 | 0.00 | 0.07 | 0.00 | 40 | 1012.3 | |
| 20260510111116 | 79 | 0.0 | 0.0 | 0.00 | 0.07 | 0.00 | 41 | 1012.4 | |
| 20260510110123 | 79 | 0.0 | 0.0 | 0.00 | 0.09 | 0.00 | 40 | 1012.5 | |
| 20260510105042 | 79 | 225 | 0.9 | 3.5 | 0.00 | 0.11 | 0.00 | 42 | 1012.7 |
| 20260510104111 | 75 | 0.0 | 0.0 | 0.00 | 0.13 | 0.00 | 43 | 1012.7 | |
| 20260510103031 | 75 | 0.0 | 0.0 | 0.00 | 0.14 | 0.00 | 42 | 1012.9 | |
| 20260510102100 | 77 | 0.0 | 0.0 | 0.00 | 0.14 | 0.00 | 41 | 1013.0 | |
| 20260510101124 | 79 | 0.0 | 0.0 | 0.00 | 0.18 | 0.00 | 42 | 1013.3 | |
| 20260510100114 | 80 | 0.0 | 0.0 | 0.00 | 0.20 | 0.00 | 41 | 1013.3 | |
| 20260510095114 | 79 | 0.0 | 0.0 | 0.00 | 0.22 | 0.00 | 42 | 1013.4 | |
| 20260510094030 | 78 | 0.0 | 0.0 | 0.00 | 0.26 | 0.00 | 43 | 1013.4 | |
| 20260510093026 | 78 | 0.0 | 0.0 | 0.00 | 0.28 | 0.00 | 45 | 1013.6 | |
| 20260510092107 | 76 | 0.0 | 0.0 | 0.00 | 0.31 | 0.00 | 47 | 1013.4 | |
| 20260510091119 | 75 | 0.0 | 0.0 | 0.00 | 0.33 | 0.00 | 49 | 1013.4 | |
| 20260510090034 | 73 | 0.0 | 0.0 | 0.00 | 0.35 | 0.00 | 57 | 1013.5 | |
| 20260510085052 | 70 | 0.0 | 0.0 | 0.00 | 0.38 | 0.00 | 62 | 1013.6 | |
| 20260510084027 | 69 | 0.0 | 0.0 | 0.00 | 0.41 | 0.00 | 62 | 1013.6 | |
| 20260510083052 | 68 | 0.0 | 0.0 | 0.00 | 0.43 | 0.00 | 66 | 1013.7 | |
| 20260510082126 | 67 | 0.0 | 0.0 | 0.00 | 0.44 | 0.00 | 72 | 1013.7 | |
| 20260510081053 | 67 | 0.0 | 0.0 | 0.00 | 0.44 | 0.00 | 84 | 1013.5 | |
| 20260510080119 | 67 | 0.0 | 0.0 | 0.00 | 0.44 | 0.00 | 90 | 1013.7 | |
| 20260510075047 | 65 | 0.0 | 0.0 | 0.00 | 0.44 | 0.00 | 93 | 1013.7 | |
| 20260510074113 | 62 | 0.0 | 0.0 | 0.00 | 0.44 | 0.00 | 96 | 1013.7 | |
| 20260510073026 | 61 | 0.0 | 0.0 | 0.00 | 0.44 | 0.00 | 98 | 1013.7 | |
| 20260510072116 | 60 | 0.0 | 0.0 | 0.00 | 0.44 | 0.00 | 99 | 1013.6 | |
| 20260510071026 | 59 | 0.0 | 0.0 | 0.00 | 0.44 | 0.00 | 99 | 1013.5 | |
| 20260510070100 | 58 | 0.0 | 0.0 | 0.00 | 0.44 | 0.00 | 99 | 1013.4 | |
| 20260510065052 | 58 | 0.0 | 0.0 | 0.00 | 0.44 | 0.00 | 99 | 1013.3 | |
| 20260510064057 | 57 | 0.0 | 0.0 | 0.00 | 0.44 | 0.00 | 99 | 1013.2 | |
| 20260510063118 | 56 | 0.0 | 0.0 | 0.00 | 0.44 | 0.00 | 99 | 1013.2 | |
| 20260510062033 | 54 | 0.0 | 0.0 | 0.00 | 0.44 | 0.00 | 99 | 1013.1 | |
| 20260510061056 | 54 | 0.0 | 0.0 | 0.00 | 0.44 | 0.00 | 99 | 1013.1 | |
| 20260510060105 | 53 | 0.0 | 0.0 | 0.00 | 0.44 | 0.00 | 99 | 1013.0 | |
| 20260510055051 | 53 | 0.0 | 0.0 | 0.00 | 0.44 | 0.00 | 99 | 1012.8 | |
| 20260510054023 | 53 | 0.0 | 0.0 | 0.00 | 0.44 | 0.00 | 99 | 1012.7 | |
| 20260510053156 | 52 | 0.0 | 0.0 | 0.00 | 0.44 | 0.00 | 99 | 1012.5 | |
| 20260510052050 | 52 | 0.0 | 0.0 | 0.00 | 0.44 | 0.00 | 99 | 1012.4 | |
| 20260510051119 | 52 | 0.0 | 0.0 | 0.00 | 0.44 | 0.00 | 99 | 1012.3 | |
| 20260510050043 | 52 | 0.0 | 0.0 | 0.00 | 0.44 | 0.00 | 99 | 1012.3 | |
| 20260510045142 | 52 | 0.0 | 0.0 | 0.00 | 0.44 | 0.00 | 99 | 1012.4 | |
| 20260510044022 | 52 | 0.0 | 0.0 | 0.00 | 0.44 | 0.00 | 99 | 1012.3 | |
| 20260510043101 | 52 | 0.0 | 0.0 | 0.00 | 0.44 | 0.00 | 99 | 1012.4 | |
| 20260510042127 | 52 | 0.0 | 0.0 | 0.00 | 0.44 | 0.00 | 99 | 1012.3 | |
| 20260510041046 | 53 | 0.0 | 0.0 | 0.00 | 0.44 | 0.00 | 99 | 1012.2 | |
| 20260510040115 | 53 | 0.0 | 0.0 | 0.00 | 0.44 | 0.00 | 99 | 1012.2 | |
| 20260510035039 | 53 | 0.0 | 0.0 | 0.00 | 0.44 | 0.00 | 99 | 1012.3 | |
| 20260510034110 | 53 | 0.0 | 0.0 | 0.00 | 0.44 | 0.00 | 99 | 1012.2 | |
| 20260510033102 | 53 | 0.0 | 0.0 | 0.00 | 0.44 | 0.00 | 99 | 1012.1 | |
| 20260510032049 | 54 | 0.0 | 0.0 | 0.00 | 0.44 | 0.00 | 99 | 1012.2 | |
| 20260510031124 | 54 | 0.0 | 0.0 | 0.00 | 0.44 | 0.00 | 99 | 1012.2 | |
| 20260510030054 | 54 | 0.0 | 0.0 | 0.00 | 0.44 | 0.00 | 99 | 1012.3 | |
| 20260510025121 | 53 | 0.0 | 0.0 | 0.00 | 0.44 | 0.00 | 99 | 1012.3 | |
| 20260510024050 | 54 | 0.0 | 0.0 | 0.00 | 0.44 | 0.00 | 99 | 1012.3 | |
| 20260510023115 | 54 | 0.0 | 0.0 | 0.00 | 0.44 | 0.00 | 99 | 1012.3 | |
| 20260510022042 | 54 | 0.0 | 0.0 | 0.00 | 0.44 | 0.00 | 99 | 1012.3 | |
| 20260510021104 | 54 | 0.0 | 0.0 | 0.00 | 0.44 | 0.00 | 99 | 1012.3 | |
| 20260510020029 | 54 | 0.0 | 0.0 | 0.00 | 0.44 | 0.00 | 99 | 1012.3 | |
| 20260510015055 | 54 | 0.0 | 0.0 | 0.00 | 0.44 | 0.00 | 99 | 1012.3 | |
| 20260510014027 | 54 | 0.0 | 0.0 | 0.00 | 0.44 | 0.00 | 99 | 1012.3 | |
| 20260510013103 | 55 | 0.0 | 0.0 | 0.00 | 0.44 | 0.00 | 97 | 1012.4 | |
| 20260510012059 | 55 | 0.0 | 0.0 | 0.00 | 0.44 | 0.00 | 97 | 1012.5 | |
| 20260510011025 | 55 | 0.0 | 0.0 | 0.00 | 0.44 | 0.00 | 96 | 1012.4 | |
| 20260510010057 | 55 | 0.0 | 0.0 | 0.00 | 0.44 | 0.00 | 96 | 1012.6 | |
| 20260510005028 | 56 | 0.0 | 0.0 | 0.00 | 0.44 | 0.00 | 96 | 1012.7 | |
| 20260510004105 | 56 | 0.0 | 0.0 | 0.00 | 0.44 | 0.00 | 96 | 1012.8 | |
| 20260510003036 | 56 | 0.0 | 0.0 | 0.00 | 0.44 | 0.00 | 96 | 1013.0 | |
| 20260510002050 | 56 | 0.0 | 0.0 | 0.00 | 0.44 | 0.00 | 95 | 1013.1 | |
| 20260510001121 | 57 | 0.0 | 0.0 | 0.00 | 0.44 | 0.00 | 95 | 1013.1 | |
| 20260510000042 | 57 | 0.0 | 0.0 | 0.00 | 0.44 | 0.00 | 95 | 1013.1 | |
| 20260509235130 | 57 | 0.0 | 0.0 | 0.00 | 0.44 | 0.00 | 95 | 1013.2 | |
| 20260509234054 | 57 | 0.0 | 0.0 | 0.00 | 0.44 | 0.00 | 95 | 1013.2 | |
| 20260509233100 | 58 | 0.0 | 0.0 | 0.00 | 0.44 | 0.00 | 94 | 1013.3 | |
| 20260509232031 | 58 | 0.0 | 0.0 | 0.00 | 0.44 | 0.00 | 94 | 1013.5 | |
| 20260509231107 | 58 | 0.0 | 0.0 | 0.00 | 0.44 | 0.00 | 94 | 1013.5 | |
| 20260509230028 | 58 | 0.0 | 0.0 | 0.00 | 0.44 | 0.00 | 94 | 1013.4 | |
| 20260509225059 | 58 | 0.0 | 0.0 | 0.00 | 0.44 | 0.00 | 93 | 1013.6 | |
| 20260509224032 | 58 | 0.0 | 0.0 | 0.00 | 0.44 | 0.00 | 93 | 1013.3 | |
| 20260509223103 | 59 | 0.0 | 0.0 | 0.00 | 0.44 | 0.00 | 93 | 1013.5 | |
| 20260509222138 | 59 | 0.0 | 0.0 | 0.00 | 0.44 | 0.00 | 93 | 1013.7 | |
| 20260509221117 | 59 | 0.0 | 0.0 | 0.00 | 0.44 | 0.00 | 92 | 1013.7 | |
| 20260509220027 | 59 | 0.0 | 0.0 | 0.00 | 0.44 | 0.00 | 92 | 1013.9 | |
| 20260509215057 | 58 | 0.0 | 0.0 | 0.00 | 0.44 | 0.44 | 91 | 1013.9 | |
| 20260509214108 | 58 | 0.0 | 0.0 | 0.00 | 0.44 | 0.44 | 91 | 1014.0 | |
| 20260509213125 | 59 | 0.0 | 0.0 | 0.00 | 0.44 | 0.44 | 90 | 1013.8 | |
| 20260509212128 | 59 | 0.0 | 0.0 | 0.00 | 0.44 | 0.44 | 89 | 1013.5 | |
| 20260509211030 | 59 | 0.0 | 0.0 | 0.00 | 0.44 | 0.44 | 89 | 1013.5 | |
| 20260509210103 | 60 | 0.0 | 0.0 | 0.00 | 0.44 | 0.44 | 88 | 1013.4 | |
| 20260509205032 | 60 | 0.0 | 0.0 | 0.00 | 0.44 | 0.44 | 87 | 1013.4 | |
| 20260509204105 | 60 | 0.0 | 0.0 | 0.00 | 0.44 | 0.44 | 87 | 1013.4 | |
| 20260509203044 | 60 | 0.0 | 0.0 | 0.00 | 0.44 | 0.44 | 86 | 1013.3 | |
| 20260509202059 | 60 | 0.0 | 0.0 | 0.00 | 0.44 | 0.44 | 86 | 1013.3 | |
| 20260509201038 | 61 | 0.0 | 0.0 | 0.00 | 0.44 | 0.44 | 85 | 1013.0 | |
| 20260509200110 | 61 | 0.0 | 0.0 | 0.00 | 0.44 | 0.44 | 85 | 1012.8 | |
| 20260509195044 | 61 | 0.0 | 0.0 | 0.00 | 0.44 | 0.44 | 84 | 1012.5 | |
| 20260509194129 | 61 | 0.0 | 0.0 | 0.00 | 0.44 | 0.44 | 83 | 1012.6 | |
| 20260509193030 | 62 | 0.0 | 0.0 | 0.00 | 0.44 | 0.44 | 82 | 1012.5 | |
| 20260509192059 | 62 | 0.0 | 0.0 | 0.00 | 0.44 | 0.44 | 82 | 1012.4 | |
| 20260509191124 | 62 | 0.0 | 0.0 | 0.00 | 0.44 | 0.44 | 81 | 1012.1 | |
| 20260509190054 | 62 | 0.0 | 0.0 | 0.00 | 0.44 | 0.44 | 80 | 1011.9 | |
| 20260509185113 | 63 | 0.0 | 0.0 | 0.00 | 0.44 | 0.44 | 80 | 1012.0 | |
| 20260509184051 | 63 | 0.0 | 0.0 | 0.00 | 0.44 | 0.44 | 78 | 1011.6 | |
| 20260509183131 | 63 | 0.0 | 0.0 | 0.00 | 0.44 | 0.44 | 74 | 1011.4 | |
| 20260509182044 | 64 | 0.0 | 0.0 | 0.00 | 0.44 | 0.44 | 72 | 1011.5 | |
| 20260509181111 | 65 | 0.0 | 0.0 | 0.00 | 0.44 | 0.44 | 70 | 1011.5 | |
| 20260509180042 | 66 | 0.0 | 0.0 | 0.00 | 0.44 | 0.44 | 66 | 1011.3 | |
| 20260509175110 | 69 | 0.0 | 0.0 | 0.00 | 0.44 | 0.44 | 64 | 1010.9 | |
| 20260509174040 | 70 | 0.0 | 0.0 | 0.00 | 0.44 | 0.44 | 64 | 1010.6 | |
| 20260509173117 | 70 | 0.0 | 0.0 | 0.00 | 0.44 | 0.44 | 65 | 1010.4 | |
| 20260509172050 | 70 | 0.0 | 0.0 | 0.00 | 0.44 | 0.44 | 65 | 1010.3 | |
| 20260509171101 | 71 | 0.0 | 0.0 | 0.00 | 0.44 | 0.44 | 64 | 1010.1 | |
| 20260509170048 | 71 | 0.0 | 0.0 | 0.00 | 0.44 | 0.44 | 61 | 1010.0 | |
| 20260509165105 | 73 | 0.0 | 0.0 | 0.00 | 0.44 | 0.44 | 57 | 1010.0 | |
| 20260509164121 | 72 | 0.0 | 0.0 | 0.00 | 0.44 | 0.44 | 60 | 1010.2 | |
| 20260509163054 | 71 | 0.0 | 0.0 | 0.00 | 0.44 | 0.44 | 62 | 1010.3 | |
| 20260509162034 | 73 | 0.0 | 0.0 | 0.00 | 0.44 | 0.44 | 57 | 1010.3 | |
| 20260509161051 | 72 | 0.0 | 0.9 | 0.00 | 0.44 | 0.44 | 60 | 1010.3 | |
| 20260509160126 | 73 | 0.0 | 0.0 | 0.00 | 0.44 | 0.44 | 58 | 1010.2 | |
| 20260509155059 | 72 | 0.0 | 0.0 | 0.00 | 0.44 | 0.44 | 60 | 1010.3 | |
| 20260509154036 | 74 | 0.0 | 0.0 | 0.00 | 0.44 | 0.44 | 56 | 1010.5 | |
| 20260509153112 | 75 | 0.0 | 0.0 | 0.00 | 0.44 | 0.44 | 54 | 1010.4 | |
| 20260509152041 | 75 | 0.0 | 0.0 | 0.00 | 0.44 | 0.44 | 54 | 1010.4 | |
| 20260509151109 | 76 | 0.0 | 0.0 | 0.00 | 0.44 | 0.44 | 57 | 1010.4 | |
| 20260509150047 | 74 | 0.0 | 0.0 | 0.00 | 0.44 | 0.44 | 57 | 1010.3 | |
| 20260509145119 | 75 | 0.0 | 0.0 | 0.00 | 0.44 | 0.44 | 61 | 1010.5 | |
| 20260509144050 | 72 | 0.0 | 0.0 | 0.00 | 0.44 | 0.44 | 68 | 1010.6 | |
| 20260509143046 | 71 | 0.0 | 0.0 | 0.00 | 0.44 | 0.44 | 71 | 1010.8 | |
| 20260509142103 | 70 | 0.0 | 0.0 | 0.00 | 0.44 | 0.44 | 75 | 1010.9 | |
| 20260509141057 | 69 | 0.0 | 0.0 | 0.00 | 0.44 | 0.44 | 86 | 1010.9 |